Weather History for Moultrie, GA

Change the Weather History Date:

Monday, November 25, 2013

  Actual Average (KMUL) Record (KMUL)
Temperature  
Mean Temperature 48 °F -  
Max Temperature 59 °F 68 °F 84 °F (1946)
Min Temperature 37 °F 44 °F 15 °F (1970)
Degree Days  
Heating Degree Days 17    
Moisture  
Dew Point 35 °F    
Average Humidity 63    
Maximum Humidity 94    
Minimum Humidity 50    
Precipitation  
Precipitation 0.00 in - - ()
Sea Level Pressure  
Sea Level Pressure 30.30 in    
Wind  
Wind Speed 7 mph (ENE)    
Max Wind Speed 10 mph    
Max Gust Speed 16 mph    
Visibility 10 miles    
Events      
Averages and records for this station are not official NWS values.
T = Trace of Precipitation, MM = Missing Value Source: NWS Daily Summary

Daily Weather History Graph

Daily Weather History Graph

Search for Another Location

Airport:

Trip Planner

Search our weather history database for the weather conditions in past years. The results will help you decide how hot, cold, wet, or windy it might be!

Date:

Astronomy

Nov. 25, 2013 Rise Set
Actual Time 7:11 AM EST 5:33 PM EST
Civil Twilight 6:44 AM EST 5:59 PM EST
Nautical Twilight 6:15 AM EST 6:29 PM EST
Astronomical Twilight 5:46 AM EST 6:58 PM EST
Moon No Moon Rise 12:42 PM EST (11/25)
Length of Visible Light 11h 14m
Length of Day
10h 22m
Waning Gibbous, 51% of the Moon is Illuminated
Nov 25
Waning Gibbous
Nov 25
Last Quarter
Dec 2
New
Dec 9
First Quarter
Dec 17
Full

Hourly Weather History & Observations

Time (EST) Temp. Windchill Dew Point Humidity Pressure Visibility Wind Dir Wind Speed Gust Speed Precip Events Conditions
12:15 AM 41.0 °F 37.1 °F 24.8 °F 53% 30.40 in 10.0 mi ENE 5.8 mph - N/A   Clear
12:35 AM 39.2 °F 34.2 °F 24.8 °F 56% 30.40 in 10.0 mi East 6.9 mph - N/A   Clear
12:55 AM 39.2 °F 34.2 °F 23.0 °F 52% 30.40 in 10.0 mi East 6.9 mph - N/A   Clear
1:15 AM 39.2 °F 37.0 °F 23.0 °F 52% 30.39 in 10.0 mi ENE 3.5 mph - N/A   Clear
1:35 AM 39.2 °F 34.2 °F 23.0 °F 52% 30.39 in 10.0 mi ENE 6.9 mph - N/A   Clear
1:55 AM 37.4 °F 33.8 °F 23.0 °F 56% 30.39 in 10.0 mi NE 4.6 mph - N/A   Clear
2:15 AM 37.4 °F 33.8 °F 23.0 °F 56% 30.39 in 10.0 mi ENE 4.6 mph - N/A   Clear
2:35 AM 37.4 °F 32.8 °F 21.2 °F 52% 30.39 in 10.0 mi NE 5.8 mph - N/A   Clear
2:55 AM 37.4 °F 34.9 °F 23.0 °F 56% 30.38 in 10.0 mi ENE 3.5 mph - N/A   Clear
3:15 AM 37.4 °F 32.8 °F 21.2 °F 52% 30.37 in 10.0 mi NE 5.8 mph - N/A   Clear
3:35 AM 37.4 °F 31.4 °F 23.0 °F 56% 30.36 in 10.0 mi ENE 8.1 mph - N/A   Clear
3:55 AM 37.4 °F 32.1 °F 21.2 °F 52% 30.36 in 10.0 mi ENE 6.9 mph - N/A   Clear
4:15 AM 37.4 °F 30.8 °F 21.2 °F 52% 30.36 in 10.0 mi NE 9.2 mph - N/A   Clear
4:35 AM 37.4 °F 32.1 °F 21.2 °F 52% 30.37 in 10.0 mi ENE 6.9 mph - N/A   Clear
4:55 AM 37.4 °F 32.1 °F 23.0 °F 56% 30.36 in 10.0 mi NE 6.9 mph - N/A   Clear
5:15 AM 37.4 °F 33.8 °F 23.0 °F 56% 30.37 in 10.0 mi NE 4.6 mph - N/A   Clear
5:35 AM 37.4 °F 33.8 °F 23.0 °F 56% 30.37 in 10.0 mi NE 4.6 mph - N/A   Clear
5:55 AM 37.4 °F 32.1 °F 23.0 °F 56% 30.36 in 10.0 mi ENE 6.9 mph - N/A   Clear
6:15 AM 37.4 °F 32.1 °F 23.0 °F 56% 30.36 in 10.0 mi NE 6.9 mph - N/A   Clear
6:35 AM 37.4 °F 34.9 °F 23.0 °F 56% 30.36 in 10.0 mi ENE 3.5 mph - N/A   Clear
6:55 AM 37.4 °F 31.4 °F 23.0 °F 56% 30.37 in 10.0 mi NE 8.1 mph - N/A   Clear
7:15 AM 37.4 °F 30.8 °F 23.0 °F 56% 30.37 in 10.0 mi ENE 9.2 mph - N/A   Clear
7:35 AM 37.4 °F 30.8 °F 24.8 °F 60% 30.37 in 10.0 mi NE 9.2 mph - N/A   Clear
7:55 AM 39.2 °F 33.0 °F 24.8 °F 56% 30.38 in 10.0 mi ENE 9.2 mph - N/A   Clear
8:15 AM 39.2 °F 33.6 °F 24.8 °F 56% 30.39 in 10.0 mi ENE 8.1 mph - N/A   Clear
8:35 AM 39.2 °F 32.5 °F 24.8 °F 56% 30.38 in 10.0 mi ENE 10.4 mph - N/A   Scattered Clouds
8:55 AM 41.0 °F 34.7 °F 26.6 °F 57% 30.38 in 10.0 mi NE 10.4 mph - N/A   Scattered Clouds
9:15 AM 41.0 °F 34.7 °F 26.6 °F 57% 30.38 in 10.0 mi NE 10.4 mph - N/A   Scattered Clouds
9:35 AM 42.8 °F 37.5 °F 28.4 °F 57% 30.39 in 10.0 mi ENE 9.2 mph - N/A   Scattered Clouds
9:55 AM 44.6 °F 42.2 °F 28.4 °F 53% 30.38 in 10.0 mi East 4.6 mph - N/A   Clear
10:15 AM 44.6 °F 40.2 °F 30.2 °F 57% 30.37 in 10.0 mi ENE 8.1 mph - N/A   Clear
10:35 AM 46.4 °F 42.9 °F 30.2 °F 53% 30.37 in 10.0 mi ENE 6.9 mph - N/A   Clear
10:55 AM 48.2 °F - 32.0 °F 54% 30.37 in 10.0 mi ENE 8.1 mph - N/A   Clear
11:15 AM 50.0 °F - 32.0 °F 50% 30.36 in 10.0 mi ENE 6.9 mph - N/A   Clear
11:35 AM 51.8 °F - 33.8 °F 50% 30.35 in 10.0 mi East 5.8 mph 16.1 mph N/A   Clear
11:55 AM 51.8 °F - 33.8 °F 50% 30.34 in 10.0 mi ENE 8.1 mph - N/A   Scattered Clouds
12:15 PM 53.6 °F - 35.6 °F 51% 30.32 in 10.0 mi NE 9.2 mph - N/A   Overcast
12:35 PM 55.4 °F - 37.4 °F 51% 30.31 in 10.0 mi ENE 6.9 mph - N/A   Mostly Cloudy
12:55 PM 53.6 °F - 37.4 °F 54% 30.29 in 10.0 mi ENE 5.8 mph - N/A   Mostly Cloudy
1:15 PM 55.4 °F - 39.2 °F 54% 30.28 in 10.0 mi ESE 6.9 mph 16.1 mph N/A   Overcast
1:35 PM 55.4 °F - 39.2 °F 54% 30.28 in 10.0 mi NE 8.1 mph - N/A   Scattered Clouds
1:55 PM 55.4 °F - 41.0 °F 58% 30.27 in 10.0 mi East 5.8 mph - N/A   Mostly Cloudy
2:15 PM 59.0 °F - 41.0 °F 51% 30.25 in 10.0 mi East 10.4 mph 16.1 mph N/A   Mostly Cloudy
2:35 PM 57.2 °F - 41.0 °F 55% 30.25 in 10.0 mi East 6.9 mph - N/A   Overcast
2:55 PM 59.0 °F - 42.8 °F 55% 30.24 in 10.0 mi East 8.1 mph - N/A   Overcast
3:15 PM 59.0 °F - 44.6 °F 59% 30.24 in 10.0 mi East 8.1 mph - N/A   Overcast
3:35 PM 59.0 °F - 44.6 °F 59% 30.24 in 10.0 mi East 8.1 mph - N/A   Overcast
3:55 PM 59.0 °F - 44.6 °F 59% 30.23 in 10.0 mi East 6.9 mph - N/A   Overcast
4:15 PM 59.0 °F - 44.6 °F 59% 30.23 in 10.0 mi ENE 5.8 mph - N/A   Overcast
4:35 PM 59.0 °F - 44.6 °F 59% 30.23 in 10.0 mi East 6.9 mph - N/A   Overcast
4:55 PM 59.0 °F - 46.4 °F 63% 30.23 in 10.0 mi East 5.8 mph - N/A   Overcast
5:15 PM 59.0 °F - 46.4 °F 63% 30.23 in 10.0 mi East 5.8 mph - N/A   Overcast
5:35 PM 57.2 °F - 46.4 °F 67% 30.23 in 10.0 mi ENE 6.9 mph - N/A   Overcast
5:55 PM 55.4 °F - 46.4 °F 72% 30.23 in 10.0 mi ENE 6.9 mph - N/A   Overcast
6:15 PM 55.4 °F - 46.4 °F 72% 30.23 in 10.0 mi East 5.8 mph - N/A   Overcast
6:35 PM 55.4 °F - 46.4 °F 72% 30.23 in 10.0 mi ENE 5.8 mph - N/A   Overcast
6:55 PM 55.4 °F - 46.4 °F 72% 30.23 in 10.0 mi ENE 8.1 mph - N/A   Overcast
7:15 PM 55.4 °F - 46.4 °F 72% 30.23 in 10.0 mi ENE 6.9 mph - N/A   Overcast
7:35 PM 53.6 °F - 46.4 °F 77% 30.21 in 10.0 mi East 8.1 mph - N/A   Overcast
7:55 PM 53.6 °F - 48.2 °F 82% 30.20 in 10.0 mi East 6.9 mph - N/A   Overcast
8:15 PM 53.6 °F - 48.2 °F 82% 30.21 in 10.0 mi East 5.8 mph - N/A   Overcast
8:35 PM 53.6 °F - 50.0 °F 88% 30.20 in 10.0 mi East 6.9 mph - N/A   Overcast
8:55 PM 53.6 °F - 50.0 °F 88% 30.20 in 10.0 mi East 5.8 mph - N/A   Overcast
9:15 PM 53.6 °F - 50.0 °F 88% 30.19 in 10.0 mi East 5.8 mph - N/A   Overcast
9:35 PM 53.6 °F - 50.0 °F 88% 30.18 in 10.0 mi ENE 8.1 mph - N/A   Overcast
9:55 PM 53.6 °F - 50.0 °F 88% 30.18 in 10.0 mi East 8.1 mph - N/A   Overcast
10:15 PM 53.6 °F - 50.0 °F 88% 30.17 in 10.0 mi East 5.8 mph - N/A   Overcast
10:35 PM 53.6 °F - 50.0 °F 88% 30.15 in 10.0 mi East 5.8 mph - N/A   Overcast
10:55 PM 53.6 °F - 50.0 °F 88% 30.14 in 10.0 mi ENE 4.6 mph - N/A   Scattered Clouds
11:15 PM 53.6 °F - 50.0 °F 88% 30.15 in 10.0 mi East 5.8 mph - N/A   Clear
11:35 PM 53.6 °F - 51.8 °F 94% 30.14 in 10.0 mi East 5.8 mph - N/A   Mostly Cloudy
11:55 PM 53.6 °F - 51.8 °F 94% 30.14 in 10.0 mi East 6.9 mph - N/A   Overcast